411P/Christensen (2021)

Japanese version
Home page
Updated on February 21, 2021

---------------------------------------------------------------------

* Profile

Designation 411P/2020 W3
Recovery Date November 17, 2020
Magnitude 21.7 mag
Recoverer E. Schwab (Egelsbach, Germany)

* Pictures

* Orbital Elements

Epoch 2021 Jan. 26.0 TT = JDT 2459240.5
T 2021 Jan. 24.49220 TT                                 Rudenko
q   2.4387614            (2000.0)            P               Q
n   0.07021728     Peri.   46.69190     -0.54795237     -0.80987413
a   5.8188887      Node    77.67400     +0.69197832     -0.57950313
e   0.5808888      Incl.   12.37739     +0.47001512     -0.09099462
P  14.0
From 170 observations 2007 Jan. 17-2021 Jan. 24, mean residual 0".8.

* Magnitudes Graph

        m1 = 10.5 + 5 log d + 20.0 log r

---------------------------------------------------------------------

The orbital elements are published on M.P.E.C. 2021-B143.
The magnitudes graphs are made with Comet for Windows.

---------------------------------------------------------------------

Copyright(C) Seiichi Yoshida (comet@aerith.net). All rights reserved.